Weather History for Duluth, MN

Change the Weather History Date:

Monday, April 22, 2013

  Actual Average Record
Temperature  
Mean Temperature 36 °F 43 °F  
Max Temperature 40 °F 53 °F 80 °F (1980)
Min Temperature 32 °F 33 °F 17 °F (1909)
Degree Days  
Heating Degree Days 29 22  
Month to date heating degree days 753 600  
Since 1 July heating degree days 8594 8677  
Cooling Degree Days 0 0  
Month to date cooling degree days 0 0  
Year to date cooling degree days 0 0  
Moisture  
Dew Point 28 °F    
Average Humidity 69    
Maximum Humidity 89    
Minimum Humidity 48    
Precipitation  
Precipitation 0.53 in 0.08 in 1.77 in (2001)
Month to date precipitation 4.32 1.66  
Year to date precipitation 8.91 4.92  
Snow  
Snow 8.20 in 0.20 in 8.20 in (2013)
Month to date snowfall 50.2 5.9  
Since 1 July snowfall 128.8 84.7  
Snow Depth 22.00 in    
Sea Level Pressure  
Sea Level Pressure 30.19 in    
Wind  
Wind Speed 8 mph (NNW)    
Max Wind Speed 15 mph    
Max Gust Speed 21 mph    
Visibility 4 miles    
Events Fog , Rain , Snow    
T = Trace of Precipitation, MM = Missing Value Source: NWS Daily Summary

Daily Weather History Graph

Daily Weather History Graph

Search for Another Location

Airport:

Trip Planner

Search our weather history database for the weather conditions in past years. The results will help you decide how hot, cold, wet, or windy it might be!

Date:

Astronomy

Apr. 22, 2013 Rise Set
Actual Time 6:08 AM CDT 8:07 PM CDT
Civil Twilight 5:35 AM CDT 8:39 PM CDT
Nautical Twilight 4:55 AM CDT 9:20 PM CDT
Astronomical Twilight 4:11 AM CDT 10:04 PM CDT
Moon 4:45 PM CDT (4/22) 4:15 AM CDT (4/22)
Length of Visible Light 15h 04m
Length of Day
13h 58m
Waxing Gibbous, 88% of the Moon is Illuminated
Apr 22
Waxing Gibbous
Apr 25
Full
May 2
Last Quarter
May 9
New
May 17
First Quarter

Hourly Weather History & Observations

Time (CDT) Temp. Windchill Dew Point Humidity Pressure Visibility Wind Dir Wind Speed Gust Speed Precip Events Conditions
12:02 AM 37.4 °F 30.3 °F 33.8 °F 87% 30.05 in 2.0 mi WNW 10.4 mph - 0.00 in   Light Drizzle
12:33 AM 37.4 °F 29.3 °F 33.8 °F 87% 30.06 in 3.0 mi NW 12.7 mph - 0.00 in   Light Drizzle
12:55 AM 37.0 °F 28.9 °F 33.1 °F 86% 30.12 in 4.0 mi WNW 12.7 mph - 0.00 in   Light Drizzle
1:50 AM 35.6 °F 27.5 °F 30.2 °F 81% 30.08 in 7.0 mi WNW 11.5 mph - 0.00 in   Overcast
1:55 AM 36.0 °F 26.7 °F 30.9 °F 82% 30.13 in 7.0 mi NW 15.0 mph - 0.00 in   Overcast
2:55 AM 35.1 °F 29.3 °F 30.0 °F 82% 30.14 in 10.0 mi WNW 6.9 mph - N/A   Overcast
3:55 AM 35.1 °F 30.1 °F 28.0 °F 76% 30.15 in 10.0 mi WNW 5.8 mph - N/A   Mostly Cloudy
4:48 AM 33.8 °F 27.7 °F 26.6 °F 75% 30.12 in 10.0 mi WNW 6.9 mph - N/A   Scattered Clouds
4:55 AM 34.0 °F 28.0 °F 27.0 °F 75% 30.18 in 10.0 mi WNW 6.9 mph - N/A   Scattered Clouds
5:55 AM 32.0 °F 25.6 °F 27.0 °F 82% 30.21 in 10.0 mi WNW 6.9 mph - N/A   Partly Cloudy
6:55 AM 32.0 °F 24.8 °F 27.0 °F 82% 30.24 in 10.0 mi WNW 8.1 mph - N/A   Partly Cloudy
7:55 AM 34.0 °F 27.2 °F 26.1 °F 73% 30.26 in 10.0 mi WNW 8.1 mph - N/A   Partly Cloudy
8:21 AM 33.8 °F 29.6 °F 26.6 °F 75% 30.19 in 10.0 mi WNW 4.6 mph - N/A   Mostly Cloudy
8:55 AM 35.1 °F 26.9 °F 26.1 °F 70% 30.24 in 10.0 mi NNW 11.5 mph 20.7 mph N/A   Scattered Clouds
9:55 AM 37.0 °F 31.6 °F 25.0 °F 62% 30.23 in 10.0 mi NNW 6.9 mph - N/A   Scattered Clouds
10:55 AM 39.0 °F 34.8 °F 23.0 °F 53% 30.25 in 10.0 mi North 5.8 mph - N/A   Partly Cloudy
11:55 AM 39.0 °F 33.4 °F 21.9 °F 50% 30.26 in 10.0 mi North 8.1 mph - N/A   Partly Cloudy
12:55 PM 39.0 °F 33.4 °F 21.0 °F 49% 30.26 in 10.0 mi NNE 8.1 mph - N/A   Scattered Clouds
1:55 PM 39.0 °F 33.4 °F 21.0 °F 49% 30.25 in 10.0 mi NW 8.1 mph - N/A   Mostly Cloudy
2:55 PM 37.9 °F 30.5 °F 21.9 °F 53% 30.24 in 10.0 mi NNW 11.5 mph - N/A   Overcast
3:55 PM 37.0 °F 30.4 °F 23.0 °F 57% 30.22 in 10.0 mi NNW 9.2 mph - N/A   Overcast
4:00 PM 37.4 °F 29.8 °F 23.0 °F 56% 30.18 in 1.5 mi North 11.5 mph - 0.00 in Snow Light Snow
4:09 PM 33.8 °F 26.4 °F 26.6 °F 75% 30.20 in 0.8 mi NNW 9.2 mph 17.3 mph 0.00 in Snow Light Snow
4:29 PM 33.8 °F 30.8 °F 28.4 °F 81% 30.20 in 0.5 mi North 3.5 mph - 0.02 in Fog , Snow Snow
4:38 PM 33.8 °F 29.6 °F 28.4 °F 81% 30.19 in 0.5 mi North 4.6 mph - 0.03 in Fog , Snow Snow
4:53 PM 33.8 °F 28.6 °F 28.4 °F 81% 30.18 in 0.2 mi North 5.8 mph - 0.05 in Fog , Snow Heavy Snow
4:55 PM 33.1 °F 26.9 °F 28.9 °F 85% 30.24 in 0.2 mi NNE 6.9 mph - 0.05 in Fog , Snow Heavy Snow
5:04 PM 33.8 °F 27.7 °F 28.4 °F 81% 30.18 in 0.2 mi North 6.9 mph - 0.03 in Fog , Snow Heavy Snow
5:11 PM 33.8 °F 27.7 °F 28.4 °F 81% 30.18 in 0.5 mi NNE 6.9 mph - 0.05 in Fog , Snow Snow
5:24 PM 33.8 °F 27.7 °F 28.4 °F 81% 30.17 in 0.5 mi North 6.9 mph - 0.08 in Fog , Snow Snow
5:31 PM 33.8 °F 27.7 °F 28.4 °F 81% 30.17 in 0.5 mi North 6.9 mph - 0.11 in Fog , Snow Snow
5:46 PM 33.8 °F 27.7 °F 28.4 °F 81% 30.16 in 0.2 mi North 6.9 mph - 0.14 in Fog , Snow Heavy Snow
5:55 PM 33.1 °F 26.9 °F 28.9 °F 85% 30.23 in 0.2 mi North 6.9 mph - 0.16 in Fog , Snow Snow
6:08 PM 33.8 °F 28.6 °F 28.4 °F 81% 30.17 in 0.5 mi NNE 5.8 mph - 0.01 in Fog , Snow Snow
6:55 PM 33.1 °F 26.9 °F 30.0 °F 89% 30.24 in 0.2 mi North 6.9 mph - 0.06 in Fog , Snow Snow
7:29 PM 33.8 °F 29.6 °F 28.4 °F 81% 30.19 in 0.5 mi North 4.6 mph - 0.05 in Fog , Snow Snow
7:55 PM 33.1 °F 27.7 °F 28.9 °F 85% 30.25 in 0.5 mi North 5.8 mph - 0.07 in Fog , Snow Snow
8:55 PM 33.1 °F 26.9 °F 28.9 °F 85% 30.23 in 0.8 mi North 6.9 mph - 0.05 in Snow Light Snow
9:02 PM 33.8 °F 27.7 °F 28.4 °F 81% 30.17 in 1.0 mi North 6.9 mph - 0.01 in Snow Light Snow
9:18 PM 33.8 °F 28.6 °F 28.4 °F 81% 30.18 in 1.0 mi North 5.8 mph - 0.01 in Snow Light Snow
9:24 PM 33.8 °F 27.7 °F 28.4 °F 81% 30.18 in 1.0 mi North 6.9 mph - 0.01 in Snow Light Snow
9:55 PM 33.1 °F 25.5 °F 28.9 °F 85% 30.23 in 1.0 mi North 9.2 mph - 0.03 in Snow Light Snow
10:40 PM 32.0 °F 26.4 °F 28.4 °F 87% 30.17 in 0.8 mi North 5.8 mph - 0.02 in Snow Light Snow
10:44 PM 32.0 °F 26.4 °F 28.4 °F 87% 30.17 in 1.0 mi North 5.8 mph - 0.03 in Snow Light Snow
10:52 PM 32.0 °F 25.6 °F 28.4 °F 87% 30.16 in 1.2 mi North 6.9 mph - 0.03 in Snow Light Snow
10:55 PM 32.0 °F 26.4 °F 28.9 °F 88% 30.22 in 1.2 mi North 5.8 mph - 0.03 in Snow Light Snow
11:55 PM 32.0 °F 25.6 °F 28.9 °F 88% 30.19 in 1.2 mi North 6.9 mph - 0.04 in Snow Light Snow